| time (UTC) | temp F | wind direction | speed knots | gust knots | rain 1hr in | rain 24hr in | rain mn in | humidity % | barometer mb |
| 20260906051613 | 78 | 0 | 0.0 | 0.0 | 0.00 | 0.66 | 0.00 | 88 | 1012.9 |
| 20260906050106 | 78 | 0 | 0.0 | 0.0 | 0.00 | 0.66 | 0.00 | 88 | 1013.0 |
| 20260906044608 | 78 | 0 | 0.0 | 0.0 | 0.00 | 0.66 | 0.66 | 88 | 1013.0 |
| 20260906043102 | 77 | 0 | 0.0 | 0.0 | 0.00 | 0.66 | 0.66 | 88 | 1013.0 |
| 20260906041601 | 77 | 0 | 0.0 | 0.0 | 0.00 | 0.66 | 0.66 | 88 | 1012.9 |
| 20260906040139 | 77 | 0 | 0.0 | 0.0 | 0.00 | 0.66 | 0.66 | 87 | 1013.0 |
| 20260906034620 | 78 | 0 | 0.0 | 0.0 | 0.00 | 0.66 | 0.66 | 87 | 1013.0 |
| 20260906033107 | 78 | 0 | 0.0 | 0.0 | 0.00 | 0.66 | 0.66 | 87 | 1013.3 |
| 20260906031559 | 78 | 0 | 0.0 | 0.0 | 0.00 | 0.66 | 0.66 | 87 | 1013.3 |
| 20260906030104 | 78 | 0 | 0.0 | 0.0 | 0.00 | 0.66 | 0.66 | 87 | 1013.1 |
| 20260906024613 | 79 | 0 | 0.0 | 0.0 | 0.00 | 0.66 | 0.66 | 87 | 1013.0 |
| 20260906023103 | 79 | 0 | 0.0 | 0.0 | 0.00 | 0.66 | 0.66 | 87 | 1012.8 |
| 20260906021601 | 79 | 0 | 0.0 | 0.0 | 0.00 | 0.66 | 0.66 | 87 | 1012.5 |
| 20260906014600 | 79 | 0 | 0.0 | 0.9 | 0.00 | 0.66 | 0.66 | 87 | 1012.4 |
| 20260906013112 | 80 | 0 | 0.0 | 0.9 | 0.00 | 0.66 | 0.66 | 87 | 1012.3 |
| 20260906011558 | 80 | 0 | 0.0 | 0.0 | 0.00 | 0.66 | 0.66 | 87 | 1012.1 |
| 20260906004604 | 81 | 0 | 0.0 | 0.0 | 0.00 | 0.66 | 0.66 | 86 | 1012.3 |
| 20260906003104 | 81 | 0 | 0.0 | 1.7 | 0.00 | 0.66 | 0.66 | 85 | 1012.4 |
| 20260906001608 | 81 | 0 | 0.0 | 1.7 | 0.00 | 0.66 | 0.66 | 85 | 1012.6 |
| 20260906000104 | 82 | 0 | 0.0 | 1.7 | 0.00 | 0.66 | 0.66 | 85 | 1012.9 |
| 20260905234606 | 82 | 0 | 0.0 | 6.1 | 0.00 | 0.66 | 0.66 | 85 | 1013.0 |
| 20260905233106 | 82 | 0 | 0.0 | 3.5 | 0.00 | 0.66 | 0.66 | 85 | 1013.0 |
| 20260905231605 | 84 | 38 | 0.0 | 4.3 | 0.00 | 0.66 | 0.66 | 86 | 1012.8 |
| 20260905230106 | 85 | 0 | 1.7 | 4.3 | 0.00 | 0.66 | 0.66 | 84 | 1012.6 |
| 20260905224616 | 86 | 117 | 0.9 | 3.5 | 0.00 | 0.66 | 0.66 | 81 | 1012.4 |
| 20260905223116 | 87 | 0 | 0.0 | 1.7 | 0.00 | 0.66 | 0.66 | 80 | 1012.5 |
| 20260905221605 | 87 | 0 | 0.0 | 1.7 | 0.00 | 0.66 | 0.66 | 79 | 1012.6 |
| 20260905214603 | 87 | 0 | 0.0 | 0.0 | 0.00 | 0.66 | 0.66 | 78 | 1012.4 |
| 20260905213106 | 88 | 0 | 0.0 | 3.5 | 0.00 | 0.66 | 0.66 | 76 | 1012.5 |
| 20260905211600 | 88 | 0 | 0.0 | 1.7 | 0.00 | 0.66 | 0.66 | 77 | 1012.6 |
| 20260905210107 | 89 | 0 | 0.0 | 2.6 | 0.00 | 0.66 | 0.66 | 75 | 1012.7 |
| 20260905204606 | 90 | 0 | 0.0 | 1.7 | 0.00 | 0.66 | 0.66 | 76 | 1012.8 |
| 20260905203102 | 91 | 0 | 0.0 | 0.0 | 0.00 | 0.66 | 0.66 | 71 | 1012.9 |
| 20260905201559 | 91 | 0 | 0.0 | 2.6 | 0.00 | 0.66 | 0.66 | 72 | 1013.0 |
| 20260905200106 | 91 | 0 | 0.0 | 2.6 | 0.00 | 0.66 | 0.66 | 74 | 1013.1 |
| 20260905194603 | 91 | 0 | 0.0 | 2.6 | 0.00 | 0.66 | 0.66 | 77 | 1013.0 |
| 20260905193103 | 90 | 189 | 0.0 | 4.3 | 0.00 | 0.66 | 0.66 | 78 | 1013.0 |
| 20260905191608 | 89 | 0 | 0.0 | 1.7 | 0.00 | 0.66 | 0.66 | 78 | 1013.4 |
| 20260905190104 | 89 | 0 | 0.0 | 1.7 | 0.00 | 0.66 | 0.66 | 79 | 1013.7 |
| 20260905184608 | 90 | 0 | 0.0 | 2.6 | 0.00 | 0.66 | 0.66 | 77 | 1013.9 |
| 20260905183112 | 90 | 0 | 0.0 | 2.6 | 0.00 | 0.66 | 0.66 | 72 | 1014.0 |
| 20260905181601 | 92 | 0 | 0.0 | 3.5 | 0.00 | 0.66 | 0.66 | 70 | 1014.1 |
| 20260905180108 | 91 | 0 | 0.0 | 1.7 | 0.00 | 0.66 | 0.66 | 74 | 1014.2 |
| 20260905174602 | 90 | 277 | 0.9 | 3.5 | 0.00 | 0.66 | 0.66 | 75 | 1014.3 |
| 20260905173121 | 90 | 0 | 0.0 | 0.9 | 0.00 | 0.66 | 0.66 | 78 | 1014.6 |
| 20260905171604 | 87 | 76 | 0.0 | 2.6 | 0.00 | 0.66 | 0.66 | 81 | 1015.0 |
| 20260905170115 | 84 | 0 | 0.0 | 2.6 | 0.00 | 0.66 | 0.66 | 86 | 1015.0 |
| 20260905164609 | 82 | 15 | 0.0 | 3.5 | 0.05 | 0.66 | 0.66 | 90 | 1015.2 |
| 20260905163122 | 81 | 0 | 0.0 | 0.0 | 0.18 | 0.66 | 0.66 | 91 | 1015.1 |
| 20260905161611 | 80 | 0 | 0.0 | 0.0 | 0.58 | 0.66 | 0.66 | 91 | 1015.1 |
| 20260905160106 | 78 | 0 | 0.0 | 0.0 | 0.66 | 0.66 | 0.66 | 89 | 1015.2 |
| 20260905154611 | 78 | 0 | 0.0 | 1.7 | 0.61 | 0.61 | 0.61 | 87 | 1015.2 |
| 20260905153103 | 80 | 0 | 0.0 | 1.7 | 0.48 | 0.48 | 0.48 | 85 | 1015.3 |
| 20260905151604 | 85 | 0 | 0.0 | 2.6 | 0.08 | 0.08 | 0.08 | 84 | 1015.2 |
| 20260905150103 | 87 | 0 | 0.0 | 0.0 | 0.00 | 0.00 | 0.00 | 83 | 1015.0 |
| 20260905144604 | 87 | 0 | 0.0 | 1.7 | 0.00 | 0.00 | 0.00 | 82 | 1014.9 |
| 20260905143107 | 87 | 0 | 0.0 | 0.9 | 0.00 | 0.00 | 0.00 | 83 | 1014.9 |
| 20260905141606 | 86 | 0 | 0.0 | 1.7 | 0.00 | 0.00 | 0.00 | 85 | 1014.9 |
| 20260905134602 | 85 | 0 | 0.0 | 0.0 | 0.00 | 0.00 | 0.00 | 86 | 1014.7 |
| 20260905133105 | 83 | 0 | 0.0 | 0.0 | 0.00 | 0.00 | 0.00 | 88 | 1014.7 |
| 20260905131604 | 81 | 0 | 0.0 | 0.0 | 0.00 | 0.00 | 0.00 | 90 | 1014.6 |
| 20260905130105 | 80 | 0 | 0.0 | 0.0 | 0.00 | 0.00 | 0.00 | 91 | 1014.6 |
| 20260905124602 | 78 | 0 | 0.0 | 0.0 | 0.00 | 0.00 | 0.00 | 92 | 1014.3 |
| 20260905123108 | 77 | 0 | 0.0 | 0.0 | 0.00 | 0.00 | 0.00 | 91 | 1014.3 |
| 20260905121558 | 77 | 0 | 0.0 | 0.0 | 0.00 | 0.00 | 0.00 | 91 | 1014.0 |
| 20260905114603 | 77 | 0 | 0.0 | 0.0 | 0.00 | 0.00 | 0.00 | 91 | 1013.7 |
| 20260905113100 | 77 | 0 | 0.0 | 0.0 | 0.00 | 0.00 | 0.00 | 91 | 1013.6 |
| 20260905111601 | 77 | 0 | 0.0 | 0.0 | 0.00 | 0.00 | 0.00 | 91 | 1013.5 |
| 20260905110100 | 77 | 0 | 0.0 | 0.0 | 0.00 | 0.00 | 0.00 | 91 | 1013.5 |
| 20260905104620 | 77 | 42 | 0.0 | 0.0 | 0.00 | 0.14 | 0.00 | 91 | 1012.9 |
| 20260905104601 | 77 | 0 | 0.0 | 0.0 | 0.00 | 0.14 | 0.00 | 91 | 1013.4 |
| 20260905104538 | 78 | 42 | 0.0 | 0.0 | 0.00 | 0.14 | 0.00 | 91 | 1013.0 |
| 20260905103107 | 77 | 0 | 0.0 | 0.0 | 0.00 | 0.14 | 0.00 | 91 | 1013.3 |
| 20260905101609 | 77 | 0 | 0.0 | 0.0 | 0.00 | 0.14 | 0.00 | 90 | 1013.2 |
| 20260905100124 | 77 | 0 | 0.0 | 0.0 | 0.00 | 0.14 | 0.00 | 90 | 1013.2 |
| 20260905094603 | 78 | 0 | 0.0 | 0.0 | 0.00 | 0.14 | 0.00 | 90 | 1013.2 |
| 20260905093106 | 78 | 0 | 0.0 | 0.0 | 0.00 | 0.14 | 0.00 | 90 | 1013.2 |
| 20260905091613 | 78 | 0 | 0.0 | 0.0 | 0.00 | 0.14 | 0.00 | 90 | 1013.0 |
| 20260905090059 | 78 | 0 | 0.0 | 0.0 | 0.00 | 0.14 | 0.00 | 90 | 1013.1 |
| 20260905084601 | 78 | 0 | 0.0 | 0.0 | 0.00 | 0.14 | 0.00 | 89 | 1012.9 |
| 20260905083122 | 79 | 0 | 0.0 | 0.0 | 0.00 | 0.14 | 0.00 | 89 | 1012.8 |
| 20260905081621 | 79 | 0 | 0.0 | 0.0 | 0.00 | 0.14 | 0.00 | 89 | 1012.9 |
| 20260905080101 | 79 | 0 | 0.0 | 0.0 | 0.00 | 0.14 | 0.00 | 89 | 1013.1 |
| 20260905074603 | 79 | 0 | 0.0 | 0.0 | 0.00 | 0.14 | 0.00 | 89 | 1013.2 |
| 20260905073101 | 79 | 0 | 0.0 | 0.0 | 0.00 | 0.14 | 0.00 | 89 | 1013.2 |
| 20260905071615 | 79 | 0 | 0.0 | 0.0 | 0.00 | 0.14 | 0.00 | 89 | 1013.3 |
| 20260905064619 | 80 | 0 | 0.0 | 0.0 | 0.00 | 0.14 | 0.00 | 88 | 1013.7 |
| 20260905063101 | 80 | 0 | 0.0 | 0.0 | 0.00 | 0.14 | 0.00 | 88 | 1013.7 |
| 20260905061608 | 81 | 0 | 0.0 | 0.0 | 0.00 | 0.14 | 0.00 | 87 | 1013.7 |
| 20260905054709 | 81 | 0 | 0.0 | 0.0 | 0.00 | 0.14 | 0.00 | 87 | 1013.9 |
| 20260905053104 | 81 | 0 | 0.0 | 0.0 | 0.00 | 0.14 | 0.00 | 87 | 1013.8 |